Regional Weather Roundup
Issued by NWS

Home | Current Version | Previous Version | Graphics & Text | Print | Product List | Glossary Off
Versions: 1 2 3 4 5 6 7 8 9 10 11 12 13 14 15 16 17 18 19 20 21 22 23 24 25 26 27 28 29 30 31 32 33 34 35 36 37 38 39 40 41 42 43 44 45 46 47 48 49 50

828
ASUS43 KFSD 241302
RWRSD

WEATHER ROUNDUP FOR SOUTH DAKOTA
NATIONAL WEATHER SERVICE SIOUX FALLS SD
700 AM CST FRI NOV 24 2017

NOTE: "FAIR" INDICATES FEW OR NO CLOUDS BELOW 12,000 FEET WITH NO
SIGNIFICANT WEATHER AND/OR OBSTRUCTIONS TO VISIBILITY.


SDZ001>005-009-010-012>017-241400-
NORTHWEST AND NORTH CENTRAL SOUTH DAKOTA

CITY           SKY/WX    TMP DP  RH WIND       PRES   REMARKS
FAITH            N/A     54  35  48 NW25G33   29.56R
MOBRIDGE       CLOUDY    49  36  61 N6        29.45R
$$

SDZ012>016-024>037-041>051-057-063-072>074-241400-
SOUTHWEST AND SOUTH CENTRAL SOUTH DAKOTA

CITY           SKY/WX    TMP DP  RH WIND       PRES   REMARKS
RAPID CTY ARPT PTCLDY    57  34  41 N35G55    29.61R SQUALL
PIERRE         PTCLDY    47  37  68 W8        29.43S
CUSTER         CLEAR     49  30  48 W16G28    29.66R
ELLSWORTH AFB  CLOUDY    56  35  44 NW30G38   29.62
PHILIP         CLEAR     43  36  76 W8        29.49S
PINE RIDGE     CLEAR     56  37  49 W12G20    29.62R
SPEARFISH      CLOUDY    52  36  54 NW22G35   29.71R
WINNER         FAIR      53  39  59 W10       29.47F
$$

SDZ004>011-016>023-039-040-241400-
NORTHEAST SOUTH DAKOTA

CITY           SKY/WX    TMP DP  RH WIND       PRES   REMARKS
ABERDEEN       PTCLDY    40  35  83 CALM      29.40R
WATERTOWN      PTCLDY    34  33  96 CALM      29.39R
BROOKINGS      CLEAR     34  33  96 SE9       29.40F WCI  27
SISSETON         N/A     51  37  58 W10       29.32S
$$

SDZ017-020-022-023-036>040-048>070-241400-
SOUTHEAST SOUTH DAKOTA

CITY           SKY/WX    TMP DP  RH WIND       PRES   REMARKS
SIOUX FALLS    CLEAR     43  39  86 CALM      29.43R
HURON          CLOUDY    37  34  89 SE5       29.40R
CHAMBERLAIN    PTCLDY    41  37  86 W5        29.45S
MITCHELL       CLEAR     41  36  82 SW7       29.41F
YANKTON        CLEAR     45  38  76 CALM      29.45F
$$

ABBREVIATIONS USED IN REMARKS
   TC - TEMPERATURE IN CELSIUS
  WCI - WIND CHILL INDEX
   HX - HEAT INDEX
  VSB - VISIBILITY





USA.gov is the U.S. government's official web portal to all federal, state and local government web resources and services.